Flag for U.S.A. Weather past 2 weeks in Flint, Michigan, U.S.A.

Now
57 °F

Overcast.


Feels Like: 55 °F
Forecast: 46 / 57 °F
Wind: 10 mph from Southwest

Location: Bishop International Airport

Current Time: Oct 20, 2014 at 2:02:17 PM

Latest Report: Oct 20, 2014 at 12:53 PM


Visibility: 10 mi

Pressure: 29.80 "Hg

Humidity: 69%

Dew point: 47 °F

Location of FlintLocation

Historic Weather in Flint — Graph

°F

Flint temperature yesterday

Maximum temperature yesterday: 53 °F (at 3:53 PM)
Minimum temperature yesterday: 31 °F (at 5:53 AM)
Average temperature yesterday: 42 °F

Past Weeks' High & Low Weather Summary

 TemperatureHumidityPressure
High71 °F (Oct 14, 2:53 AM)93% (Oct 15, 11:53 PM)30.29 "Hg (Oct 15, 11:53 PM)
Low31 °F (Oct 11, 6:53 AM)33% (Oct 8, 3:53 PM)29.47 "Hg (Oct 17, 2:53 PM)
Average53 °F71%29.88 "Hg
* Reported Oct 5 12:53 PM — Oct 20 12:53 PM, Flint, Weather by CustomWeather, © 2014

Note: Actual official high and low records may vary slightly from our data, if they occured in-between our weather recording intervals... More about our weather records

Advertising

Flint weather history for previous 24 hours

 ConditionsComfort  
Time TempWeatherWind HumidityBarometerVisibility
12:53 PM
Oct 20
57 °FOvercast.10 mph69%29.80 "Hg10 mi
11:53 AM57 °FMostly cloudy.9 mph69%29.80 "Hg10 mi
10:53 AM54 °FMore clouds than sun.9 mph74%29.83 "Hg10 mi
9:53 AM52 °FPartly sunny.9 mph75%29.84 "Hg10 mi
8:53 AM50 °FPassing clouds.9 mph80%29.84 "Hg10 mi
7:53 AM50 °FOvercast.9 mph77%29.84 "Hg10 mi
6:53 AM50 °FOvercast.10 mph77%29.84 "Hg10 mi
5:53 AM49 °FOvercast.9 mph80%29.86 "Hg10 mi
4:53 AM49 °FOvercast.9 mph77%29.86 "Hg10 mi
3:53 AM49 °FOvercast.9 mph77%29.88 "Hg10 mi
2:53 AM50 °FMostly cloudy.10 mph68%29.90 "Hg10 mi
1:53 AM50 °FOvercast.8 mph63%29.92 "Hg10 mi
12:53 AM50 °FOvercast.7 mph61%29.95 "Hg10 mi
10:53 PM
Oct 19
49 °FPartly cloudy.6 mph61%29.97 "Hg10 mi
9:53 PM49 °FClear.8 mph59%29.98 "Hg10 mi
8:53 PM49 °FClear.6 mph61%30.01 "Hg10 mi
7:53 PM50 °FClear.5 mph57%30.02 "Hg10 mi
6:53 PM51 °FSunny.6 mph54%30.04 "Hg10 mi
5:53 PM52 °FSunny.6 mph55%30.05 "Hg10 mi
4:53 PM53 °FSunny.9 mph48%30.07 "Hg10 mi
3:53 PM53 °FSunny.9 mph51%30.09 "Hg10 mi
2:53 PM51 °FSunny.9 mph52%30.12 "Hg10 mi
Weather by CustomWeather, © 2014

See weather overviewHow to use our weather pages